GFSNW_850_thetae_159.txt.gz
Theta_e
305 304 304 305 304 307 308 309 316 308 309 315 313 314 311 308 310 310 311 311 311 311 311 312 312 311 312 309 310 311 309 313 314 312 309 309 310 312 312 314 314 312 313 316
305 305 305 305 304 306 307 311 311 308 310 317 314 310 311 310 311 310 311 312 310 310 311 313 312 311 309 309 311 311 309 311 313 311 311 310 311 311 309 310 311 314 314 315
306 306 305 305 305 305 308 310 318 312 310 309 312 311 310 311 309 309 309 310 310 311 311 311 311 311 310 309 310 307 307 310 312 314 313 313 311 311 310 311 314 313 312 312
308 307 306 305 305 305 307 309 311 308 313 311 310 310 309 309 310 309 308 311 310 310 311 310 311 311 310 309 307 308 308 311 309 308 308 309 310 311 310 310 311 311 312 311
311 308 307 306 305 305 307 312 312 307 309 308 309 308 310 310 309 309 309 311 309 309 309 309 310 310 309 309 309 309 308 312 309 309 307 307 307 308 309 310 310 310 309 309
315 310 307 306 305 305 306 306 307 309 307 309 310 310 310 310 309 309 308 309 310 310 308 308 307 307 307 308 309 308 308 309 310 310 306 307 310 308 308 308 308 309 309 310
315 315 307 306 305 305 304 305 307 311 311 310 309 309 309 309 309 309 308 308 309 307 305 306 307 308 308 308 308 307 308 309 310 313 310 317 306 305 307 307 308 308 308 308
315 315 312 305 305 305 305 305 306 310 310 310 309 308 309 308 308 309 308 307 305 305 305 309 309 309 308 307 307 308 307 309 311 315 313 313 308 305 306 308 311 308 308 309
314 315 314 310 305 305 305 305 305 306 310 310 307 309 309 310 310 309 307 305 305 305 307 309 313 313 309 310 308 307 308 308 310 309 313 313 310 307 305 306 311 307 307 308
314 314 313 312 310 306 305 305 305 305 309 307 306 309 310 308 308 310 308 307 306 305 309 311 312 313 306 310 311 311 311 311 312 312 312 312 307 305 305 311 310 307 306 307
314 314 313 311 311 309 305 305 306 305 308 307 306 305 306 306 307 311 307 308 307 308 309 310 311 311 309 308 309 310 312 312 313 312 312 314 306 305 309 308 306 306 306 306
313 313 313 311 309 308 306 305 306 306 306 307 305 305 306 305 305 307 306 307 307 309 310 309 308 309 307 308 310 306 309 311 312 312 313 309 306 308 307 305 305 306 306 306
313 312 312 311 309 309 308 306 306 306 306 307 305 306 305 306 306 305 307 306 306 305 305 308 308 310 309 310 309 309 308 306 308 308 310 309 309 308 307 306 305 305 305 305
309 311 311 309 309 309 308 307 306 306 306 307 306 303 304 305 305 305 305 305 305 305 304 308 309 310 307 309 307 308 308 305 308 308 308 307 308 307 306 304 305 304 304 303
307 308 308 310 310 309 308 307 307 306 306 308 307 304 304 303 303 304 304 304 304 306 307 308 309 308 306 306 305 307 307 307 308 308 308 308 308 306 304 305 304 303 303 303
300 306 308 309 309 309 307 307 309 307 305 306 309 304 302 302 302 302 302 302 303 305 306 307 307 304 305 309 309 308 308 308 308 308 307 306 305 305 304 303 302 302 302 302
294 297 304 308 309 309 307 307 306 306 305 306 306 307 300 300 300 300 300 301 302 303 305 304 305 304 304 307 308 308 307 307 307 306 304 304 305 304 302 302 301 301 301 301
294 294 296 302 307 308 307 308 306 305 305 305 307 305 299 299 300 301 300 301 301 302 304 302 303 302 303 306 306 306 306 305 304 304 304 304 303 302 302 301 300 300 299 298
295 294 294 296 303 305 306 307 306 306 305 305 303 305 307 298 298 298 299 300 302 300 302 302 302 303 303 305 305 306 305 304 304 303 302 301 300 299 299 299 298 297 297 296
295 294 296 301 304 304 305 306 304 304 304 303 301 302 302 299 299 299 300 299 303 302 302 300 301 302 302 303 304 304 303 303 302 301 301 299 298 299 297 298 297 296 295 294
295 298 300 301 302 304 305 301 301 301 301 300 301 302 300 299 302 302 300 301 300 302 302 301 303 303 302 302 302 302 302 301 302 301 299 298 299 298 298 297 296 295 293 292
296 297 299 300 301 301 301 302 302 301 304 300 300 302 301 298 299 301 298 302 299 303 297 299 301 303 302 301 300 300 300 299 299 298 299 298 297 297 297 295 293 292 291 292
295 295 298 298 299 301 303 303 304 302 300 300 299 299 300 298 299 300 301 302 301 297 299 301 303 303 300 299 299 298 298 297 298 298 296 295 295 294 293 292 292 292 292 292
295 295 297 298 298 299 303 303 305 302 301 300 301 300 301 300 300 301 303 301 297 300 301 302 303 302 300 299 298 297 297 297 296 295 293 292 292 292 292 292 291 290 290 289
295 295 298 298 297 296 295 296 298 298 300 300 300 299 300 300 302 301 300 298 302 302 304 304 300 299 299 298 297 296 296 294 293 292 292 292 292 291 290 290 289 289 288 288
294 295 295 296 296 298 293 296 296 297 299 300 299 300 302 303 303 300 301 301 302 305 302 299 298 298 296 298 297 295 294 292 291 292 291 291 291 290 289 289 288 288 288 288
294 294 295 296 295 298 296 295 297 298 298 300 300 301 302 300 301 301 302 302 304 299 298 297 298 296 297 296 295 292 292 292 291 291 290 290 289 288 288 288 288 288 288 288

GFSNW_850_thetae_165.txt.gz
Theta_e
306 306 306 306 305 305 307 313 311 309 309 312 308 307 310 309 310 310 310 309 310 309 309 309 310 310 309 309 309 310 307 307 307 310 308 308 309 310 308 310 309 305 307 307
307 306 307 306 306 305 307 309 311 311 311 311 305 309 309 309 310 309 310 310 309 309 310 311 310 310 309 309 308 308 307 307 305 305 307 307 308 310 309 306 306 307 307 306
310 308 307 307 306 305 309 311 308 313 311 310 308 310 309 310 309 309 309 309 309 308 309 308 310 311 309 309 308 307 307 305 307 306 308 308 309 309 308 308 305 307 306 304
315 313 309 308 306 306 310 310 307 307 306 307 306 308 307 308 309 308 308 309 307 307 308 308 309 308 308 309 308 307 305 305 304 306 306 307 309 309 308 307 308 306 306 305
315 315 312 308 307 306 306 310 310 309 308 308 308 307 308 308 308 308 308 308 307 306 307 308 309 307 306 307 305 306 304 305 304 306 305 305 305 306 307 307 308 308 307 306
314 315 315 310 307 306 305 306 309 310 308 306 306 307 308 308 308 308 308 307 306 308 307 307 307 307 307 306 306 304 304 304 304 307 304 305 307 304 305 306 307 306 305 305
314 315 315 313 307 306 305 304 307 311 309 306 306 308 309 308 307 308 308 307 308 306 306 306 307 307 307 306 305 305 305 304 303 304 307 310 308 303 303 305 306 305 305 305
314 314 315 314 311 306 305 305 305 309 309 308 307 308 308 308 308 307 308 306 306 305 306 305 305 305 306 306 305 305 304 304 305 308 307 308 304 304 305 306 308 305 304 305
313 314 314 315 313 310 307 305 305 306 308 307 307 307 308 307 305 306 307 306 306 306 304 305 309 308 307 308 307 306 306 303 305 304 308 309 308 304 305 306 306 306 306 306
313 312 313 314 314 313 310 307 305 305 309 308 306 307 307 308 307 306 307 306 306 305 304 306 307 308 305 307 308 309 306 305 306 306 307 306 305 304 305 308 305 306 307 306
313 313 313 312 313 313 311 308 306 305 307 308 307 306 306 307 307 307 307 306 306 304 304 305 306 306 305 304 306 307 307 306 306 306 308 305 304 304 305 305 306 306 306 306
311 310 312 313 312 313 311 309 306 306 305 307 306 305 305 305 306 307 307 307 306 307 304 303 303 305 302 303 305 304 305 306 307 305 305 306 305 306 306 307 306 306 306 305
306 310 312 312 312 312 312 310 308 306 306 307 307 306 306 305 305 305 306 306 307 306 306 305 304 305 302 305 304 305 304 305 305 305 305 307 308 307 306 306 306 306 305 305
307 309 311 312 312 311 310 310 309 307 306 305 306 306 304 304 305 305 305 306 306 305 305 306 304 305 305 303 303 304 304 304 303 303 303 306 306 307 307 307 306 305 305 305
306 307 309 310 310 310 310 310 309 308 307 307 307 306 305 305 304 304 304 304 304 305 305 302 304 305 304 302 301 303 304 303 303 303 305 305 306 307 307 307 306 305 305 304
299 305 307 308 307 308 308 309 309 309 307 307 301 304 304 303 302 303 303 304 304 305 306 305 307 306 304 301 302 305 306 307 307 305 306 306 307 307 306 305 305 304 303 302
295 295 302 307 305 305 305 308 307 307 306 306 305 304 302 301 301 301 302 302 303 304 305 304 304 304 304 300 304 306 307 307 307 307 307 306 305 306 305 305 304 303 302 301
294 295 295 298 305 304 305 305 307 306 306 306 303 302 299 299 300 300 300 301 302 302 303 303 302 302 302 302 304 306 306 306 306 306 306 306 306 305 304 303 303 302 300 299
294 294 294 296 298 304 304 303 305 306 306 305 303 304 300 299 299 300 300 301 300 301 299 300 301 300 302 303 304 305 305 305 305 306 305 304 304 304 303 302 300 299 299 298
294 295 297 300 301 303 304 304 304 304 304 304 302 303 300 299 299 299 299 299 300 302 299 300 300 301 302 304 304 305 304 303 305 305 303 303 303 303 301 299 299 298 298 297
297 298 299 300 302 303 302 304 302 301 301 301 301 304 300 300 299 300 300 300 299 300 297 300 301 300 299 304 304 304 303 302 303 304 304 303 302 302 300 299 298 298 297 296
295 297 298 300 301 301 301 301 301 300 303 300 301 302 301 300 301 300 299 301 299 300 297 298 299 297 302 303 303 302 302 302 302 303 303 302 301 299 299 298 297 296 295 293
295 295 297 297 298 300 302 295 301 302 300 300 299 299 300 299 300 299 299 302 300 296 298 299 296 299 301 302 301 301 300 301 301 301 300 299 299 298 298 296 294 293 292 292
294 294 291 294 289 297 298 299 299 299 300 300 300 299 300 300 300 299 300 298 297 299 300 297 294 300 299 299 299 299 299 299 299 298 298 297 296 295 294 292 292 292 291 290
292 293 293 285 295 296 296 296 297 298 299 300 300 300 300 298 300 300 297 297 300 300 297 293 299 297 297 297 298 298 297 297 297 297 295 294 293 292 292 291 290 290 289 289
292 292 294 294 294 294 296 296 296 298 299 300 299 300 300 300 300 301 296 293 293 293 291 298 298 298 297 297 298 298 297 296 295 294 292 292 292 291 291 290 289 289 288 288
290 290 292 294 295 295 295 296 296 298 297 297 298 300 300 298 301 300 297 297 297 299 299 299 297 297 298 298 298 297 296 295 293 292 291 291 290 290 289 289 288 289 288 288

GFSNW_850_thetae_168.txt.gz
Theta_e
308 306 307 307 306 305 307 312 308 309 307 310 305 306 309 308 309 310 309 308 309 309 309 309 310 309 309 308 308 309 306 305 306 309 307 307 308 309 305 308 306 304 305 304
308 307 308 307 306 305 307 310 311 311 309 309 304 307 309 308 309 309 309 309 309 308 309 310 309 309 308 309 307 308 307 306 304 306 305 305 308 309 307 304 303 306 306 304
310 309 308 308 307 306 308 311 308 312 310 308 306 308 308 309 308 309 308 308 307 307 308 307 309 308 309 308 307 307 307 305 306 307 307 305 308 309 307 305 304 305 303 303
315 313 309 308 307 306 310 310 305 307 305 305 305 306 306 307 307 307 307 308 306 306 307 307 307 307 305 307 306 306 305 305 304 305 305 307 308 308 307 306 306 306 305 304
315 315 313 308 307 306 306 310 310 307 306 306 307 305 307 308 307 307 307 308 306 305 307 307 307 306 305 306 304 303 302 305 303 304 304 303 305 306 305 306 307 305 304 306
314 314 315 312 307 306 305 306 308 309 307 305 305 306 307 308 307 307 307 306 306 307 306 306 307 306 305 305 305 304 303 302 303 305 304 305 307 305 306 306 306 304 304 302
314 314 315 314 309 306 305 304 307 310 307 304 305 307 308 308 307 308 307 306 307 306 306 305 306 306 305 305 304 303 303 303 302 303 306 308 307 302 303 305 305 303 304 304
313 314 315 315 313 309 306 305 305 309 307 306 306 307 307 307 307 307 307 306 305 305 305 303 305 305 305 305 305 304 302 303 303 307 306 306 305 303 303 305 307 303 303 303
313 313 314 314 314 313 310 306 305 306 307 305 307 307 307 306 305 305 307 306 305 305 303 304 308 307 307 307 306 305 303 301 304 303 307 308 307 304 305 305 305 304 304 304
312 313 312 313 314 313 312 310 306 305 307 308 306 306 306 307 305 305 306 306 306 305 303 305 306 308 304 306 307 308 305 303 305 305 306 304 304 304 305 307 304 305 306 306
311 312 313 312 312 313 313 311 309 306 306 308 307 305 306 306 306 305 306 304 305 303 304 304 305 305 304 304 304 307 306 305 305 305 308 304 304 304 305 304 304 306 306 306
310 312 312 312 312 312 313 311 310 307 306 306 306 305 305 305 306 308 306 306 306 306 303 302 301 304 301 302 303 303 305 305 306 304 305 304 305 305 306 307 306 306 306 306
310 309 309 311 312 312 312 311 310 308 306 306 306 306 306 305 305 305 306 306 306 306 306 304 302 305 301 304 302 304 304 303 304 304 303 305 307 306 306 306 307 306 306 306
305 306 310 312 312 311 311 311 310 309 308 305 305 306 305 305 305 305 305 306 306 306 305 304 303 304 304 303 302 303 303 303 302 302 302 304 307 306 306 306 306 306 306 305
305 305 308 309 311 311 311 310 309 308 308 307 307 306 305 305 303 303 304 304 305 305 304 302 304 304 303 301 301 303 303 302 303 303 305 305 306 307 307 307 307 306 305 305
305 307 307 309 309 309 308 309 309 308 307 308 305 305 304 304 303 302 303 303 303 305 305 304 305 305 304 301 302 304 306 307 307 306 306 305 306 306 306 307 306 305 305 304
295 300 305 306 307 308 307 307 307 308 307 307 305 303 302 301 301 301 302 302 303 304 305 303 303 304 304 299 303 306 307 307 307 306 305 305 305 306 306 305 305 304 304 303
294 295 297 303 306 305 304 304 305 306 305 306 303 302 300 299 300 300 300 301 302 302 303 302 302 302 301 301 303 306 306 305 305 306 305 305 305 306 305 304 304 303 302 301
294 294 295 296 300 303 304 304 304 305 305 304 303 304 300 299 299 300 300 301 299 300 298 300 301 300 302 304 304 305 305 304 305 305 305 304 304 304 304 303 303 302 301 299
294 295 297 299 301 301 300 302 302 304 304 303 302 303 298 299 299 298 299 299 299 296 299 300 300 301 303 303 304 303 303 302 302 303 303 303 303 303 302 302 301 299 299 299
297 298 298 300 302 302 300 302 301 301 301 301 302 303 299 300 300 300 300 300 298 297 297 299 300 299 299 302 302 302 303 302 302 302 302 303 304 303 302 301 299 299 298 298
296 297 298 299 301 302 302 301 300 300 303 301 301 301 301 299 300 300 298 301 299 299 297 299 299 297 300 299 300 301 301 301 301 302 302 302 302 301 300 299 298 298 297 296
295 296 297 297 298 300 299 295 298 302 300 300 299 299 299 299 300 300 299 301 301 296 298 299 296 298 298 298 298 299 299 301 301 301 301 301 300 299 299 298 297 296 294 292
293 293 292 292 290 296 297 297 298 298 299 300 300 299 299 299 299 299 300 298 296 299 300 296 292 297 296 296 297 298 298 298 299 299 299 298 298 298 297 296 294 292 292 292
292 293 289 291 293 295 295 296 297 297 298 299 299 300 300 298 300 300 297 298 300 300 296 292 298 297 296 297 297 297 297 296 297 297 298 297 296 295 293 292 292 291 291 290
290 291 291 294 293 294 295 295 297 297 297 298 299 299 300 300 300 300 298 294 291 296 295 299 300 300 298 297 297 297 296 296 296 296 295 294 293 292 292 291 290 289 289 289
288 289 291 291 293 294 293 293 294 293 294 292 296 297 298 296 300 298 292 291 296 295 295 296 297 298 297 296 297 297 297 295 295 294 293 292 292 291 290 289 288 289 289 289

GFSNW_850_thetae_171.txt.gz
Theta_e
307 308 307 307 307 305 307 312 308 309 306 309 303 304 306 308 309 309 308 308 308 308 308 308 309 308 307 308 308 308 305 304 309 310 309 310 307 307 305 306 306 303 304 303
307 307 307 308 308 305 306 312 310 308 307 309 303 304 308 308 308 308 308 308 308 307 308 309 309 309 308 308 307 307 306 305 304 305 304 305 305 306 304 303 302 304 304 304
308 307 308 308 308 306 308 309 307 310 308 307 305 307 308 308 308 308 307 307 306 306 306 306 308 306 308 308 307 307 306 303 304 306 306 304 306 308 305 304 303 304 303 302
311 311 309 308 307 306 309 310 305 307 305 304 303 305 306 306 307 306 306 307 306 305 306 306 306 305 304 305 304 305 304 305 304 304 304 305 307 307 306 306 305 306 302 304
313 314 313 308 307 306 307 311 308 306 304 305 305 305 306 307 306 306 307 307 306 305 306 307 306 305 304 305 303 303 301 305 303 304 302 302 304 305 304 306 303 302 302 305
313 314 314 311 307 306 308 306 307 308 305 303 303 304 306 307 306 307 306 306 305 306 305 306 306 306 304 304 304 303 302 302 303 305 304 304 306 304 306 305 305 302 304 303
312 313 314 313 307 305 305 304 306 309 307 303 304 306 306 306 306 306 306 305 306 306 305 305 305 305 305 304 303 302 302 302 301 303 305 306 306 301 303 305 305 303 302 301
312 313 314 314 311 307 305 305 306 308 306 305 305 306 306 306 306 306 307 306 305 305 305 302 304 304 304 305 304 304 301 302 302 305 305 305 305 302 303 304 305 302 303 302
312 312 313 314 313 311 308 306 305 305 306 305 307 306 306 305 304 304 307 306 305 305 301 303 307 306 306 306 305 304 301 300 303 303 306 307 306 304 304 304 304 302 303 302
312 312 312 313 314 313 312 309 306 305 306 307 306 305 306 306 304 304 305 306 305 304 302 304 305 306 304 305 306 308 304 302 303 305 305 303 302 303 304 306 304 304 304 305
312 312 311 312 313 313 313 311 309 306 306 307 306 306 306 306 306 305 305 304 304 302 303 303 304 304 303 303 303 306 305 303 304 304 306 305 303 304 306 303 305 306 305 306
312 312 311 312 312 312 312 311 310 308 307 306 306 306 305 305 306 306 306 304 305 304 302 301 301 304 300 301 303 302 304 303 305 304 304 303 304 304 306 306 306 306 306 306
311 311 311 311 312 311 311 311 310 308 307 307 306 306 305 305 304 305 306 305 306 306 306 302 301 304 300 304 301 303 303 302 304 303 303 303 307 306 305 306 306 306 306 306
310 310 309 311 310 311 311 311 310 309 308 305 306 306 306 305 305 305 304 305 305 305 304 303 302 303 302 302 301 301 302 302 301 301 301 303 306 307 307 306 306 306 306 306
308 308 308 311 312 312 311 311 309 309 308 307 307 306 305 305 304 304 304 304 305 305 304 302 304 303 303 300 300 302 302 302 302 303 304 304 305 306 307 306 306 306 305 305
304 305 306 308 310 310 310 309 309 309 308 308 305 305 304 304 304 304 304 304 304 304 304 303 304 305 303 301 302 304 306 306 306 305 304 304 304 305 305 306 306 306 305 305
304 307 306 308 308 309 309 308 307 309 307 308 307 304 301 301 301 301 302 302 303 304 304 302 303 303 303 299 303 305 305 306 306 306 306 305 306 306 306 306 305 305 304 304
295 299 305 306 307 307 307 306 305 305 306 307 304 302 300 300 300 300 301 302 302 302 302 302 301 302 300 302 303 305 305 305 305 305 304 304 304 305 305 305 304 304 304 303
296 295 297 300 302 304 303 304 304 305 306 304 301 304 303 299 299 299 300 301 299 300 298 298 300 299 301 303 303 304 304 303 303 303 303 304 304 304 304 303 303 303 303 302
295 295 297 297 300 299 300 301 302 303 304 302 301 302 298 299 298 298 299 299 300 299 298 300 300 301 301 301 300 301 302 302 302 301 302 302 303 303 303 303 303 302 301 300
297 297 298 297 300 300 300 300 301 300 300 300 301 302 298 299 298 299 300 301 299 299 296 300 301 298 298 299 298 300 301 301 301 301 301 301 302 303 303 302 301 300 299 298
296 297 298 297 299 300 300 300 300 301 303 300 300 301 300 299 300 301 298 301 300 298 297 300 298 295 297 296 297 299 299 300 301 301 302 302 302 302 301 301 299 298 298 297
296 296 298 297 298 300 299 299 301 302 299 300 299 299 299 299 301 300 300 301 300 297 298 299 293 297 297 296 296 297 297 299 300 301 301 301 301 300 300 299 298 297 296 295
294 293 291 289 291 295 296 295 297 297 298 299 299 298 299 299 299 299 301 298 297 297 296 293 290 298 296 296 296 297 298 298 298 298 299 298 298 298 298 297 296 295 293 292
292 292 288 290 292 293 294 295 297 297 297 298 299 299 299 298 300 299 297 298 300 300 299 296 299 299 298 296 296 297 297 298 297 297 297 296 296 296 296 294 292 292 292 291
290 291 290 292 293 293 295 294 293 293 296 296 298 299 299 297 296 298 298 298 298 296 296 296 296 295 295 295 295 296 297 297 296 296 296 294 294 293 292 292 291 291 290 289
288 288 290 291 292 293 294 293 293 291 292 294 295 295 296 292 297 298 296 295 294 295 295 295 294 295 295 295 295 296 296 296 295 295 294 293 291 291 291 290 289 288 289 290

GFSNW_850_thetae_174.txt.gz
Theta_e
298 298 305 305 305 305 306 310 308 310 306 307 303 303 304 307 307 308 308 307 307 307 307 308 308 308 306 307 307 307 304 305 309 311 309 309 308 308 308 310 307 303 304 304
298 298 306 306 305 305 306 310 310 308 306 307 303 302 306 307 307 307 307 308 306 306 307 308 307 308 307 307 306 307 304 304 306 309 308 305 307 310 306 303 302 303 304 304
298 299 307 306 306 305 306 308 307 307 305 306 304 305 306 307 307 306 307 306 305 305 305 305 307 306 307 307 306 307 305 302 304 307 307 305 306 304 304 303 303 303 302 302
298 300 307 307 306 305 306 308 307 309 306 304 302 304 305 305 306 306 306 306 306 305 305 305 306 304 303 305 304 304 302 303 303 303 303 304 306 306 304 303 303 305 301 303
299 303 309 310 306 305 306 310 306 304 303 304 302 303 304 305 305 305 305 306 305 304 304 305 304 304 304 304 302 302 300 303 302 303 302 302 305 305 304 305 301 301 301 304
302 307 312 312 309 305 308 307 306 308 304 301 303 303 304 305 305 306 306 305 305 305 304 305 305 305 304 303 304 302 301 301 302 304 303 304 304 303 305 305 304 301 304 302
304 309 312 313 311 305 306 305 307 308 306 303 303 304 304 305 305 306 306 305 305 305 305 304 304 303 303 303 303 301 301 302 301 303 304 305 304 301 303 304 304 302 302 300
303 310 312 312 312 306 305 305 305 308 305 304 304 305 305 305 305 305 306 306 305 305 304 302 304 303 304 304 304 303 299 301 302 304 304 304 304 301 303 304 305 302 301 300
304 310 312 313 312 308 305 305 305 306 305 305 306 305 305 303 303 303 306 305 305 305 300 302 306 304 305 305 304 302 301 299 302 302 305 306 305 303 302 303 304 302 302 301
307 311 312 312 312 310 308 306 305 305 305 306 306 306 305 306 304 303 304 305 304 304 301 304 304 305 303 304 305 307 303 302 302 305 303 302 301 303 303 305 305 303 304 304
309 312 312 312 312 312 310 309 307 306 306 306 306 306 307 305 305 304 304 303 303 301 302 302 303 304 302 303 302 306 304 302 302 303 304 305 303 303 306 303 304 305 304 305
311 311 312 312 312 312 311 310 309 307 307 306 307 306 305 305 306 306 305 304 304 303 301 300 300 304 299 300 302 300 304 302 303 302 303 302 304 304 305 305 305 305 305 305
310 312 312 312 311 311 311 311 310 307 306 306 306 305 305 304 304 305 306 305 305 305 305 301 300 304 300 303 301 302 301 300 303 302 302 302 305 306 304 305 306 306 306 306
310 312 312 311 311 311 311 311 310 308 308 306 305 306 305 306 305 305 304 305 305 305 304 303 302 303 301 301 300 301 301 301 301 301 301 303 305 306 306 307 306 306 306 306
310 310 311 310 311 311 311 310 311 309 308 307 306 305 305 304 304 304 304 304 305 305 304 302 303 302 302 299 300 302 301 301 302 302 303 303 304 305 306 306 306 306 305 305
309 309 309 309 311 310 310 310 309 310 309 309 302 304 303 304 304 303 303 303 304 304 304 302 303 304 302 300 302 303 305 304 304 303 303 304 304 305 305 305 305 306 305 304
307 307 308 308 310 309 309 309 309 310 309 308 305 302 302 301 302 302 302 302 303 303 304 302 302 303 303 299 303 304 304 305 305 305 304 304 305 305 305 305 305 305 305 304
306 306 308 308 308 307 308 307 308 309 308 309 303 302 300 300 300 300 301 302 302 302 302 301 300 301 300 302 302 302 302 303 304 304 304 303 304 304 304 304 304 304 304 304
296 303 304 305 306 305 304 305 305 306 308 305 302 304 302 299 299 299 300 300 299 299 298 298 300 298 301 300 297 298 299 300 301 301 302 302 303 303 304 303 303 303 303 303
297 297 298 298 300 301 302 302 304 305 305 303 301 301 299 298 298 297 298 299 298 300 298 299 300 302 300 298 297 296 298 299 299 300 301 302 302 302 303 303 302 302 302 302
296 297 297 299 299 300 300 300 300 299 300 300 301 302 298 299 296 298 299 300 299 299 297 301 301 298 297 297 296 297 298 299 300 300 300 300 300 301 302 302 302 302 301 300
295 296 296 298 299 299 299 299 299 300 302 300 300 300 300 299 300 300 299 302 299 299 296 300 300 295 297 296 296 297 297 298 300 300 300 301 301 301 301 301 301 300 299 298
296 297 298 296 297 298 299 300 301 301 299 299 299 299 300 299 300 300 300 301 301 297 299 300 294 296 296 295 297 297 297 297 298 299 300 300 300 299 299 299 298 297 297 296
294 293 294 293 294 296 295 296 297 296 298 299 299 298 298 299 299 299 301 297 295 294 294 294 293 297 297 295 295 296 297 297 297 297 298 298 298 298 298 297 296 296 295 294
292 292 290 290 292 293 294 295 296 296 297 298 298 298 299 298 300 299 297 296 298 297 296 296 298 296 295 295 295 295 296 297 297 297 297 297 297 296 296 296 294 293 292 292
290 291 290 292 293 293 293 292 292 292 295 296 297 299 299 299 298 298 295 297 299 294 295 296 295 295 295 294 295 295 295 296 296 296 296 296 295 295 294 293 292 291 290 290
287 288 290 291 292 293 293 293 292 290 292 294 294 295 295 291 293 295 295 293 292 295 295 294 294 294 294 293 293 294 295 295 295 295 295 294 293 292 291 291 290 290 289 288

GFSNW_850_thetae_180.txt.gz
Theta_e
311 311 312 310 300 300 304 307 311 308 308 308 308 311 310 306 308 307 308 308 309 310 309 309 310 310 309 307 308 309 309 310 313 314 312 311 313 314 314 316 315 313 315 316
309 309 312 311 309 300 305 309 309 308 307 311 309 308 306 305 308 308 309 309 309 308 309 309 309 309 307 307 308 309 307 309 312 314 312 308 312 314 312 308 307 309 313 312
304 309 310 311 310 302 305 305 310 306 306 305 308 309 309 308 306 306 307 308 307 307 307 307 309 308 307 305 307 306 305 308 309 311 309 313 314 311 312 313 313 312 310 308
300 305 308 310 310 306 306 305 308 308 308 307 307 307 308 307 307 305 306 307 307 308 308 306 306 306 306 305 304 307 306 309 307 307 307 307 308 312 311 313 313 312 308 307
299 303 305 308 310 306 305 306 307 305 307 304 307 307 308 308 307 306 306 307 307 307 308 307 306 306 306 306 305 304 303 308 305 307 305 304 304 306 307 309 309 310 311 310
297 297 303 304 309 307 305 305 305 304 306 304 307 308 308 307 305 305 304 306 307 306 307 305 305 304 305 306 306 306 305 305 306 308 305 306 307 305 307 307 305 306 306 308
297 297 298 304 306 308 306 305 305 306 309 306 306 305 305 306 305 305 305 305 306 305 305 304 303 303 304 304 305 304 306 305 305 310 307 310 306 302 304 306 306 304 304 304
298 297 297 301 304 307 306 304 306 305 308 306 306 304 305 305 304 305 305 305 305 304 304 306 307 306 305 305 304 304 303 305 309 311 309 308 307 303 305 306 307 305 305 305
298 298 297 296 299 305 308 305 304 305 306 308 306 306 305 307 306 305 305 304 304 304 304 306 308 308 306 306 304 302 302 302 307 306 308 310 308 304 302 304 308 305 304 306
298 298 298 296 296 302 307 306 304 306 305 306 304 307 306 305 305 306 305 304 303 303 306 308 308 308 305 308 306 307 307 306 308 308 309 307 305 303 303 308 309 304 304 305
298 298 298 299 297 301 303 307 304 307 305 305 304 305 306 304 305 308 304 305 303 303 306 307 307 308 306 306 305 307 307 308 308 307 308 311 303 304 307 305 303 303 304 304
303 304 303 299 296 301 302 307 305 308 305 304 304 305 306 306 306 305 304 304 303 305 305 304 305 307 303 305 308 302 308 306 308 307 308 303 303 303 303 304 304 304 305 305
307 307 305 302 298 300 303 307 305 305 304 304 304 304 304 305 305 306 306 305 305 304 304 304 305 307 304 307 307 305 303 301 306 305 304 304 303 304 304 304 304 305 305 304
306 308 306 302 299 302 302 305 306 306 304 306 304 304 303 304 304 305 306 305 305 305 305 305 306 306 302 305 303 304 304 302 305 306 304 303 303 303 304 305 305 305 305 305
302 304 302 300 301 303 304 303 307 306 306 307 301 302 302 303 304 304 304 304 305 304 304 306 307 303 303 302 303 306 302 305 306 308 303 304 303 303 304 304 304 304 305 305
302 301 302 301 302 303 304 304 306 305 309 307 306 301 301 302 303 304 303 303 304 304 304 304 302 302 303 306 306 303 302 302 301 303 302 304 304 304 304 304 304 304 304 304
304 303 302 303 307 304 304 304 306 306 307 309 302 302 300 301 302 302 302 303 303 303 303 302 302 302 302 304 306 302 301 302 302 302 303 303 303 303 304 304 304 304 304 304
304 305 303 303 305 305 305 304 307 308 309 308 305 302 300 301 300 300 301 302 302 302 301 300 302 301 301 305 302 299 299 301 302 301 301 301 302 302 303 303 303 303 303 303
305 303 306 303 301 302 304 303 306 308 308 305 304 305 305 299 298 300 300 301 302 299 302 301 301 302 305 301 297 297 298 298 299 301 301 301 301 301 301 302 302 302 302 302
301 304 303 300 303 305 304 307 308 307 306 306 304 300 302 300 298 299 300 299 301 305 301 298 302 304 299 297 296 296 297 298 298 299 301 300 300 300 301 301 301 301 301 301
299 298 298 300 303 302 303 301 301 301 303 303 301 300 300 298 302 301 299 301 300 303 302 303 304 303 298 296 295 296 296 297 298 298 299 299 300 300 301 301 301 301 301 301
295 297 299 301 301 299 300 302 300 302 304 300 301 299 299 298 300 300 300 303 300 304 299 303 304 299 295 295 295 295 295 296 297 298 298 299 299 300 300 300 301 301 300 300
296 297 297 297 296 300 301 300 301 301 299 299 299 300 299 299 300 300 302 303 303 298 301 303 300 295 294 294 295 295 295 295 296 297 297 298 298 298 298 299 299 299 298 298
294 293 294 295 296 295 294 296 297 296 298 299 300 298 300 299 301 301 303 299 298 299 299 298 297 295 294 294 294 294 295 295 295 296 296 297 297 297 297 297 297 297 297 296
292 292 293 294 293 292 292 293 293 295 297 299 299 298 299 300 301 300 298 298 300 299 299 298 295 294 293 293 293 293 294 294 295 295 295 295 296 296 296 296 296 295 295 294
291 290 293 292 292 292 291 291 291 293 295 297 298 300 301 299 300 300 301 300 299 298 296 294 293 293 293 293 293 293 293 294 294 294 294 295 295 294 294 294 293 293 292 291
288 289 290 292 291 290 290 290 289 292 293 295 295 297 296 295 299 298 296 296 296 294 293 294 293 293 292 292 292 292 292 292 293 293 294 294 294 293 292 292 291 291 290 290

GFSNW_850_thetae_183.txt.gz
Theta_e
307 309 312 310 312 310 298 309 311 309 308 310 311 314 312 308 309 308 310 310 310 311 311 311 311 311 311 309 309 310 311 311 312 312 314 313 314 315 316 320 317 315 316 315
300 305 308 311 311 310 304 308 310 308 308 314 314 312 310 309 309 310 310 311 311 311 311 310 310 311 310 308 309 310 310 310 312 314 313 310 312 313 314 315 313 315 314 315
297 300 305 309 309 310 307 307 311 307 307 310 311 313 312 311 309 309 309 310 309 310 310 310 310 310 309 308 308 306 306 309 310 312 311 310 311 314 314 315 317 316 314 313
298 298 302 306 308 309 308 306 306 310 311 309 310 310 311 310 310 308 308 309 309 309 309 309 308 309 308 307 306 307 308 309 309 309 308 308 308 308 312 314 315 314 313 311
299 298 299 303 306 308 306 306 305 307 308 310 311 311 311 311 311 308 309 308 309 309 309 309 308 307 308 308 307 307 306 308 308 307 306 307 307 307 308 311 314 315 315 314
299 298 297 298 304 307 307 306 306 306 306 309 310 311 311 311 309 308 307 308 308 308 309 308 308 307 307 308 308 309 307 307 308 309 308 308 309 307 307 308 308 309 309 310
298 298 298 297 298 305 307 306 307 307 307 306 309 309 309 310 309 308 307 306 307 306 305 305 305 306 307 307 307 307 308 308 308 311 312 314 308 304 306 308 308 306 306 308
297 298 296 296 296 298 304 306 306 307 308 305 306 308 309 308 307 307 307 307 306 305 305 308 309 309 308 308 307 307 307 308 310 311 310 310 309 305 307 307 309 307 307 308
299 298 298 298 297 296 298 303 305 306 307 309 305 307 308 310 311 309 307 305 305 305 307 308 309 310 309 308 307 305 306 306 308 310 310 310 309 306 304 306 310 307 307 308
296 297 298 298 298 297 299 299 302 305 307 306 306 307 309 308 309 310 307 304 304 304 307 309 309 310 308 310 309 309 308 308 309 311 311 310 307 305 305 309 310 306 306 307
297 298 299 299 298 298 298 298 299 301 306 306 306 305 307 307 307 310 307 307 305 304 308 308 310 309 309 308 308 309 310 310 310 309 310 313 305 306 309 307 305 306 306 307
297 298 299 299 299 299 299 299 299 299 302 306 306 306 305 305 307 308 306 307 306 307 308 307 308 309 307 309 311 305 308 309 310 309 310 306 305 305 304 304 306 305 306 306
297 297 300 301 302 302 302 298 299 301 301 304 304 304 306 306 305 305 308 306 306 305 305 307 308 309 308 309 308 307 306 304 308 308 306 306 306 305 304 304 304 305 304 305
297 300 301 301 303 305 305 300 300 301 301 304 305 304 305 304 304 305 305 306 305 305 305 308 308 308 305 307 306 306 306 304 307 307 306 305 304 304 304 304 305 305 305 304
298 302 302 300 305 307 307 301 301 301 302 304 304 303 303 305 304 304 305 305 305 306 306 308 309 305 305 305 305 307 304 307 308 309 305 306 305 303 304 305 304 304 304 304
299 303 301 302 306 308 302 301 301 302 302 304 303 302 302 302 303 303 303 304 305 305 307 307 304 303 306 308 309 305 304 303 302 304 303 303 304 303 304 304 304 304 304 304
301 303 301 301 301 301 301 301 302 302 302 303 301 300 299 300 301 301 302 303 304 305 305 305 305 304 305 307 307 304 302 302 302 302 303 304 303 303 303 303 303 304 304 304
300 302 301 300 300 300 302 302 303 303 303 304 302 301 299 300 301 301 301 302 303 303 303 302 305 302 304 307 305 301 299 301 301 301 302 301 302 302 302 302 302 303 303 303
303 304 303 302 301 302 303 302 304 304 303 301 301 303 304 299 299 300 300 302 305 300 305 305 304 305 307 305 301 299 298 298 299 300 300 300 301 301 301 302 302 301 301 302
302 303 302 300 300 301 302 303 303 301 302 302 303 300 301 300 300 302 302 302 303 306 303 300 304 306 300 298 298 298 298 297 298 298 299 299 299 299 300 301 301 301 301 301
299 299 298 299 301 302 301 299 300 300 301 301 300 301 301 299 304 303 301 304 303 307 304 305 305 305 300 296 297 296 297 297 298 298 298 298 299 299 300 300 301 301 301 301
294 294 298 299 299 299 301 303 301 303 304 301 302 300 300 299 301 301 301 304 303 307 300 305 306 301 295 295 295 295 295 296 298 298 298 298 298 299 299 300 300 300 300 300
296 296 297 297 297 300 303 303 303 303 301 299 300 301 299 299 301 301 302 304 305 301 304 305 302 296 294 294 294 295 295 295 295 297 297 298 298 298 298 299 299 299 299 298
293 295 295 296 295 295 295 297 298 295 299 300 300 300 300 300 302 302 305 300 301 304 304 303 298 295 293 293 294 294 294 294 295 296 296 297 297 297 297 297 297 297 297 297
293 293 295 294 292 292 293 294 294 295 298 300 300 300 301 302 302 301 299 300 303 303 302 299 295 293 293 293 293 293 294 294 295 295 295 296 296 296 296 296 296 296 296 295
291 291 294 293 293 292 292 292 293 293 296 299 299 301 302 300 301 301 302 302 302 299 298 295 293 292 292 292 292 292 293 293 293 294 294 294 294 294 294 294 294 294 293 293
289 290 290 291 290 290 290 290 291 293 295 296 297 299 298 298 300 298 297 298 297 295 294 293 293 292 292 292 292 292 292 292 292 292 292 293 293 293 293 292 291 291 291 290

GFSNW_850_thetae_186.txt.gz
Theta_e
298 306 308 309 309 310 310 302 310 310 308 310 311 313 313 309 310 309 309 310 310 310 310 311 310 310 311 309 309 310 310 310 310 310 312 312 313 314 314 319 319 314 315 312
300 298 304 307 308 310 309 307 308 309 308 312 312 313 312 311 310 310 310 310 311 311 310 310 309 310 309 309 309 309 308 309 308 313 312 311 312 312 313 314 315 314 315 311
300 299 298 302 306 308 309 307 307 308 307 309 310 312 312 312 310 309 310 310 310 310 310 309 310 310 310 308 309 307 307 307 308 310 309 309 309 311 313 314 316 316 315 313
301 300 298 300 304 306 308 307 305 307 309 308 308 309 311 312 311 308 309 309 309 309 309 309 308 308 308 308 307 306 307 308 307 307 308 307 307 307 307 312 313 314 314 313
300 301 300 298 301 306 307 307 306 306 307 307 307 310 311 312 311 310 308 308 309 308 308 308 308 308 307 307 306 306 306 306 306 305 306 305 305 306 307 306 310 312 312 313
297 299 300 299 298 302 304 306 307 306 306 306 306 307 310 311 311 310 310 308 308 308 308 308 308 307 307 306 308 307 307 305 305 307 308 308 308 306 305 306 308 307 308 307
297 298 299 299 297 298 301 304 305 306 307 307 308 306 307 308 310 310 309 307 306 307 306 306 306 306 306 306 306 307 307 307 306 307 308 310 308 304 305 307 307 306 305 306
298 297 297 298 297 297 297 299 301 305 307 307 308 308 305 304 306 308 308 308 307 306 305 306 307 307 307 307 305 305 305 306 306 308 308 308 307 305 306 305 307 306 306 305
299 298 299 298 298 298 299 298 298 300 304 305 307 308 308 305 305 308 309 307 306 305 306 307 307 308 309 307 306 304 306 305 306 307 309 309 308 305 304 304 307 305 306 304
297 297 297 296 296 296 298 299 298 299 300 302 304 308 308 308 306 308 307 305 304 304 305 306 306 307 308 308 306 305 305 305 306 307 309 309 305 305 305 309 308 306 306 306
297 297 296 297 296 296 298 298 299 299 299 299 303 304 306 307 307 308 307 305 305 303 306 306 306 306 306 307 307 307 308 307 307 307 308 309 305 305 307 305 305 306 306 306
295 295 295 295 295 297 299 300 299 298 300 299 301 300 301 306 307 306 307 308 306 306 305 305 306 307 305 306 308 304 306 306 308 307 309 306 305 305 304 305 305 306 307 307
294 294 295 296 296 297 298 299 299 300 299 299 299 299 302 304 305 306 306 307 307 306 307 306 306 307 306 305 305 306 305 304 305 306 305 305 306 305 304 304 305 305 306 306
292 293 294 294 296 297 297 298 299 299 300 300 299 299 299 298 304 306 305 305 306 306 305 306 306 306 305 306 305 305 305 303 306 306 304 304 304 304 304 304 305 305 305 304
288 290 294 295 296 297 298 300 301 302 300 300 299 300 300 302 302 305 305 305 305 305 305 305 306 306 303 303 303 304 303 304 305 307 303 304 303 303 304 304 304 304 304 304
288 291 295 296 297 301 302 302 302 303 302 300 302 301 301 304 304 305 302 303 304 306 307 307 306 305 305 304 305 305 304 303 304 302 303 304 304 304 304 304 304 304 303 303
288 293 295 297 300 302 302 302 303 304 302 301 299 299 301 301 302 301 302 303 304 305 306 304 305 304 305 304 305 303 303 303 303 303 303 303 303 303 303 303 304 304 304 304
289 295 296 300 301 301 300 301 303 303 301 300 298 299 299 300 300 301 302 303 303 304 304 303 304 302 304 304 303 302 301 301 302 302 303 303 302 302 302 302 302 302 303 303
293 296 300 300 300 300 301 300 301 301 301 301 300 301 301 299 301 300 301 303 303 302 303 304 304 304 303 303 301 300 300 301 301 301 301 301 301 301 301 302 302 302 302 302
295 298 300 301 301 301 301 301 301 300 300 302 302 302 299 299 299 300 300 300 302 304 303 302 302 304 299 299 299 299 298 298 299 299 299 300 300 300 300 301 301 301 301 301
293 295 297 299 301 301 301 299 300 299 299 301 301 301 298 298 302 302 301 302 301 306 302 304 304 303 298 297 297 297 297 297 298 298 299 299 299 300 300 300 300 300 300 300
292 293 295 299 300 300 299 300 300 301 304 299 300 300 300 298 300 301 300 303 302 307 299 304 306 298 295 295 295 295 296 296 297 297 298 298 298 299 299 299 300 300 300 300
294 295 296 297 296 298 301 304 303 302 300 298 299 299 299 298 300 300 302 305 303 300 303 305 298 295 294 294 294 294 294 295 296 296 297 297 297 298 298 299 299 299 299 299
293 295 294 295 294 295 295 296 297 296 298 299 300 299 300 300 301 301 302 300 301 304 305 302 296 294 293 293 293 293 293 294 295 296 296 296 296 296 296 297 297 297 297 297
293 293 294 293 293 292 292 294 293 294 298 300 300 300 301 301 301 299 299 301 303 301 300 297 293 293 292 292 292 292 293 293 294 294 295 295 295 295 295 295 295 295 295 295
291 290 293 292 292 291 291 291 293 294 296 299 300 300 299 299 300 299 298 297 300 299 296 293 292 292 292 292 292 292 292 293 293 293 294 294 294 294 294 294 294 294 294 293
289 290 289 290 291 290 289 290 291 294 295 296 296 296 296 295 293 293 294 297 296 294 293 292 291 291 291 291 291 291 291 291 291 292 292 292 293 293 293 292 292 291 291 291